| time (UTC) | temp F | wind direction | speed knots | gust knots | rain 1hr in | rain 24hr in | rain mn in | humidity % | barometer mb |
| 20260504000505 | 65 | 272 | 1.7 | 3.5 | 0.00 | 0.00 | 0.00 | 43 | 1004.2 |
| 20260504000019 | 65 | 5 | 0.9 | 1.7 | 0.00 | 0.00 | 0.00 | 43 | 1004.2 |
| 20260503235507 | 65 | 326 | 0.0 | 2.6 | 0.00 | 0.00 | 0.00 | 43 | 1004.2 |
| 20260503235007 | 66 | 103 | 0.9 | 3.5 | 0.00 | 0.00 | 0.00 | 43 | 1004.3 |
| 20260503234504 | 66 | 341 | 0.0 | 3.5 | 0.00 | 0.00 | 0.00 | 43 | 1004.2 |
| 20260503234004 | 66 | 13 | 0.9 | 2.6 | 0.00 | 0.00 | 0.00 | 42 | 1004.2 |
| 20260503233503 | 66 | 319 | 0.9 | 4.3 | 0.00 | 0.00 | 0.00 | 43 | 1004.2 |
| 20260503233009 | 66 | 105 | 0.9 | 7.0 | 0.00 | 0.00 | 0.00 | 42 | 1004.3 |
| 20260503232502 | 66 | 24 | 1.7 | 7.0 | 0.00 | 0.00 | 0.00 | 42 | 1004.4 |
| 20260503232012 | 66 | 202 | 0.9 | 5.2 | 0.00 | 0.00 | 0.00 | 42 | 1004.5 |
| 20260503231510 | 66 | 78 | 0.9 | 5.2 | 0.00 | 0.00 | 0.00 | 42 | 1004.6 |
| 20260503231006 | 66 | 179 | 1.7 | 3.5 | 0.00 | 0.00 | 0.00 | 41 | 1004.6 |
| 20260503230509 | 66 | 222 | 1.7 | 4.3 | 0.00 | 0.00 | 0.00 | 41 | 1004.5 |
| 20260503230015 | 66 | 302 | 2.6 | 4.3 | 0.00 | 0.00 | 0.00 | 41 | 1004.6 |
| 20260503225505 | 66 | 327 | 1.7 | 5.2 | 0.00 | 0.00 | 0.00 | 42 | 1004.8 |
| 20260503225010 | 66 | 350 | 1.7 | 6.1 | 0.00 | 0.00 | 0.00 | 41 | 1004.8 |
| 20260503224520 | 66 | 71 | 2.6 | 6.1 | 0.00 | 0.00 | 0.00 | 41 | 1004.7 |
| 20260503224003 | 66 | 76 | 1.7 | 6.1 | 0.00 | 0.00 | 0.00 | 41 | 1004.7 |
| 20260503223504 | 66 | 251 | 1.7 | 6.1 | 0.00 | 0.00 | 0.00 | 42 | 1004.7 |
| 20260503223006 | 66 | 294 | 0.9 | 6.1 | 0.00 | 0.00 | 0.00 | 43 | 1004.7 |
| 20260503222502 | 66 | 173 | 0.9 | 4.3 | 0.00 | 0.00 | 0.00 | 43 | 1004.7 |
| 20260503222002 | 66 | 22 | 1.7 | 8.7 | 0.00 | 0.00 | 0.00 | 43 | 1004.8 |
| 20260503221509 | 66 | 273 | 1.7 | 8.7 | 0.00 | 0.00 | 0.00 | 42 | 1004.7 |
| 20260503221009 | 66 | 273 | 2.6 | 7.8 | 0.00 | 0.00 | 0.00 | 42 | 1004.8 |
| 20260503220514 | 66 | 159 | 1.7 | 5.2 | 0.00 | 0.00 | 0.00 | 41 | 1004.8 |
| 20260503220014 | 66 | 295 | 0.9 | 7.8 | 0.00 | 0.00 | 0.00 | 42 | 1004.9 |
| 20260503215506 | 66 | 171 | 1.7 | 6.1 | 0.00 | 0.00 | 0.00 | 42 | 1004.9 |
| 20260503215006 | 66 | 338 | 1.7 | 4.3 | 0.00 | 0.00 | 0.00 | 43 | 1004.8 |
| 20260503214519 | 66 | 275 | 1.7 | 4.3 | 0.00 | 0.00 | 0.00 | 43 | 1005.0 |
| 20260503214005 | 66 | 22 | 1.7 | 3.5 | 0.00 | 0.00 | 0.00 | 42 | 1005.0 |
| 20260503213505 | 66 | 134 | 1.7 | 7.0 | 0.00 | 0.00 | 0.00 | 42 | 1005.0 |
| 20260503213007 | 66 | 126 | 1.7 | 7.0 | 0.00 | 0.00 | 0.00 | 41 | 1005.1 |
| 20260503212508 | 67 | 290 | 1.7 | 5.2 | 0.00 | 0.00 | 0.00 | 41 | 1005.2 |
| 20260503212004 | 67 | 170 | 1.7 | 7.0 | 0.00 | 0.00 | 0.00 | 41 | 1005.3 |
| 20260503211507 | 67 | 68 | 1.7 | 7.8 | 0.00 | 0.00 | 0.00 | 42 | 1005.3 |
| 20260503211003 | 67 | 215 | 2.6 | 8.7 | 0.00 | 0.00 | 0.00 | 42 | 1005.2 |
| 20260503210503 | 67 | 180 | 1.7 | 8.7 | 0.00 | 0.00 | 0.00 | 42 | 1005.3 |
| 20260503210013 | 67 | 267 | 2.6 | 7.0 | 0.00 | 0.00 | 0.00 | 42 | 1005.3 |
| 20260503205503 | 66 | 53 | 2.6 | 8.7 | 0.00 | 0.00 | 0.00 | 41 | 1005.4 |
| 20260503205007 | 66 | 58 | 3.5 | 8.7 | 0.00 | 0.00 | 0.00 | 42 | 1005.4 |
| 20260503204007 | 65 | 130 | 1.7 | 8.7 | 0.00 | 0.00 | 0.00 | 41 | 1005.6 |
| 20260503203511 | 66 | 296 | 3.5 | 8.7 | 0.00 | 0.00 | 0.00 | 42 | 1005.8 |
| 20260503203042 | 66 | 307 | 1.7 | 9.6 | 0.00 | 0.00 | 0.00 | 44 | 1005.7 |
| 20260503202510 | 65 | 155 | 2.6 | 9.6 | 0.00 | 0.00 | 0.00 | 44 | 1005.7 |
| 20260503202004 | 64 | 352 | 2.6 | 7.8 | 0.00 | 0.00 | 0.00 | 44 | 1005.8 |
| 20260503201508 | 66 | 19 | 3.5 | 7.0 | 0.00 | 0.00 | 0.00 | 44 | 1005.9 |
| 20260503201006 | 66 | 302 | 1.7 | 7.0 | 0.00 | 0.00 | 0.00 | 44 | 1006.1 |
| 20260503200502 | 65 | 332 | 3.5 | 14.8 | 0.00 | 0.00 | 0.00 | 45 | 1006.2 |
| 20260503200013 | 64 | 93 | 2.6 | 14.8 | 0.00 | 0.00 | 0.00 | 46 | 1006.4 |
| 20260503195506 | 64 | 169 | 3.5 | 8.7 | 0.00 | 0.00 | 0.00 | 45 | 1006.4 |
| 20260503195005 | 65 | 318 | 2.6 | 8.7 | 0.00 | 0.00 | 0.00 | 45 | 1006.5 |
| 20260503194531 | 65 | 101 | 2.6 | 7.8 | 0.00 | 0.00 | 0.00 | 44 | 1006.6 |
| 20260503194006 | 65 | 348 | 2.6 | 12.2 | 0.00 | 0.00 | 0.00 | 43 | 1006.6 |
| 20260503193508 | 64 | 69 | 6.1 | 13.9 | 0.00 | 0.00 | 0.00 | 44 | 1006.7 |
| 20260503193019 | 65 | 186 | 4.3 | 13.9 | 0.00 | 0.00 | 0.00 | 43 | 1006.8 |
| 20260503192508 | 64 | 64 | 1.7 | 12.2 | 0.00 | 0.00 | 0.00 | 44 | 1006.8 |
| 20260503192009 | 64 | 179 | 4.3 | 12.2 | 0.00 | 0.00 | 0.00 | 42 | 1006.7 |
| 20260503191526 | 64 | 230 | 4.3 | 12.2 | 0.00 | 0.00 | 0.00 | 42 | 1006.8 |
| 20260503191003 | 65 | 286 | 3.5 | 15.6 | 0.00 | 0.00 | 0.00 | 40 | 1006.8 |
| 20260503190502 | 65 | 99 | 5.2 | 15.6 | 0.00 | 0.00 | 0.00 | 40 | 1006.7 |
| 20260503190008 | 66 | 11 | 2.6 | 8.7 | 0.00 | 0.00 | 0.00 | 40 | 1006.7 |
| 20260503185511 | 66 | 146 | 2.6 | 10.4 | 0.00 | 0.00 | 0.00 | 39 | 1006.8 |
| 20260503185006 | 65 | 71 | 3.5 | 10.4 | 0.00 | 0.00 | 0.00 | 41 | 1006.8 |
| 20260503184521 | 65 | 41 | 2.6 | 13.9 | 0.00 | 0.00 | 0.00 | 42 | 1006.8 |
| 20260503184006 | 64 | 50 | 3.5 | 13.9 | 0.00 | 0.00 | 0.00 | 43 | 1006.8 |
| 20260503183505 | 63 | 160 | 7.0 | 17.4 | 0.00 | 0.00 | 0.00 | 44 | 1006.9 |
| 20260503183020 | 63 | 244 | 5.2 | 17.4 | 0.00 | 0.00 | 0.00 | 44 | 1007.0 |
| 20260503182509 | 64 | 166 | 2.6 | 13.0 | 0.00 | 0.00 | 0.00 | 46 | 1007.1 |
| 20260503182007 | 63 | 348 | 4.3 | 13.0 | 0.00 | 0.00 | 0.00 | 44 | 1007.1 |
| 20260503181523 | 63 | 155 | 3.5 | 13.9 | 0.00 | 0.00 | 0.00 | 45 | 1007.3 |
| 20260503181007 | 62 | 57 | 7.0 | 13.9 | 0.00 | 0.00 | 0.00 | 46 | 1007.5 |
| 20260503180511 | 63 | 339 | 4.3 | 16.5 | 0.00 | 0.00 | 0.00 | 46 | 1007.5 |
| 20260503180010 | 63 | 140 | 5.2 | 16.5 | 0.00 | 0.00 | 0.00 | 46 | 1007.5 |
| 20260503175502 | 63 | 163 | 5.2 | 13.9 | 0.00 | 0.00 | 0.00 | 45 | 1007.5 |
| 20260503175002 | 63 | 158 | 4.3 | 13.9 | 0.00 | 0.00 | 0.00 | 47 | 1007.7 |
| 20260503174512 | 63 | 221 | 2.6 | 13.9 | 0.00 | 0.00 | 0.00 | 47 | 1007.9 |
| 20260503174006 | 61 | 159 | 6.1 | 12.2 | 0.00 | 0.00 | 0.00 | 48 | 1007.9 |
| 20260503173506 | 61 | 123 | 3.5 | 13.9 | 0.00 | 0.00 | 0.00 | 50 | 1008.0 |
| 20260503173016 | 61 | 333 | 2.6 | 13.9 | 0.00 | 0.00 | 0.00 | 50 | 1008.0 |
| 20260503172505 | 60 | 149 | 5.2 | 19.1 | 0.00 | 0.00 | 0.00 | 51 | 1008.2 |
| 20260503172011 | 60 | 136 | 3.5 | 19.1 | 0.00 | 0.00 | 0.00 | 53 | 1008.4 |
| 20260503171524 | 59 | 140 | 5.2 | 13.9 | 0.00 | 0.00 | 0.00 | 52 | 1008.6 |
| 20260503171007 | 59 | 11 | 6.1 | 13.9 | 0.00 | 0.00 | 0.00 | 52 | 1008.7 |
| 20260503170508 | 59 | 163 | 1.7 | 15.6 | 0.00 | 0.00 | 0.00 | 52 | 1008.7 |
| 20260503151011 | 55 | 109 | 3.5 | 8.7 | 0.00 | 0.00 | 0.00 | 55 | 1010.3 |
| 20260503150509 | 56 | 293 | 3.5 | 9.6 | 0.00 | 0.00 | 0.00 | 53 | 1010.2 |
| 20260503131004 | 53 | 312 | 1.7 | 7.0 | 0.00 | 0.00 | 0.00 | 52 | 1011.1 |
| 20260503130513 | 53 | 217 | 1.7 | 7.0 | 0.00 | 0.00 | 0.00 | 52 | 1011.1 |
| 20260503110511 | 47 | 306 | 0.9 | 4.3 | 0.00 | 0.00 | 0.00 | 54 | 1011.0 |
| 20260503090510 | 46 | 9 | 0.9 | 4.3 | 0.00 | 0.00 | 0.00 | 53 | 1011.7 |
| 20260503081514 | 46 | 299 | 0.9 | 3.5 | 0.00 | 0.00 | 0.00 | 52 | 1012.1 |
| 20260503081003 | 46 | 277 | 1.7 | 3.5 | 0.00 | 0.00 | 0.00 | 52 | 1012.1 |
| 20260503080503 | 47 | 12 | 0.9 | 3.5 | 0.00 | 0.00 | 0.00 | 51 | 1012.2 |
| 20260503072508 | 47 | 21 | 0.9 | 5.2 | 0.00 | 0.00 | 0.00 | 50 | 1012.4 |
| 20260503072007 | 47 | 325 | 1.7 | 5.2 | 0.00 | 0.00 | 0.00 | 50 | 1012.4 |
| 20260503071526 | 47 | 5 | 1.7 | 7.0 | 0.00 | 0.00 | 0.00 | 50 | 1012.5 |
| 20260503071003 | 47 | 348 | 1.7 | 7.0 | 0.00 | 0.00 | 0.00 | 49 | 1012.5 |
| 20260503070503 | 47 | 138 | 1.7 | 5.2 | 0.00 | 0.00 | 0.00 | 49 | 1012.5 |
| 20260503055003 | 47 | 31 | 0.0 | 6.1 | 0.00 | 0.00 | 0.00 | 49 | 1013.2 |
| 20260503054519 | 47 | 201 | 1.7 | 6.1 | 0.00 | 0.00 | 0.00 | 48 | 1013.1 |
| 20260503054003 | 47 | 112 | 0.9 | 3.5 | 0.00 | 0.00 | 0.00 | 49 | 1013.2 |
| 20260503053503 | 47 | 62 | 0.9 | 3.5 | 0.00 | 0.00 | 0.00 | 49 | 1013.3 |
| 20260503053031 | 47 | 190 | 0.9 | 3.5 | 0.00 | 0.00 | 0.00 | 49 | 1013.3 |
| 20260503052507 | 47 | 273 | 0.9 | 3.5 | 0.00 | 0.00 | 0.00 | 49 | 1013.3 |
| 20260503052008 | 47 | 352 | 0.9 | 3.5 | 0.00 | 0.00 | 0.00 | 49 | 1013.4 |
| 20260503051522 | 47 | 352 | 0.9 | 2.6 | 0.00 | 0.00 | 0.00 | 48 | 1013.5 |
| 20260503051007 | 47 | 215 | 0.9 | 2.6 | 0.00 | 0.00 | 0.00 | 48 | 1013.4 |
| 20260503050511 | 48 | 37 | 0.9 | 2.6 | 0.00 | 0.00 | 0.00 | 48 | 1013.4 |
| 20260503050024 | 48 | 250 | 0.9 | 4.3 | 0.00 | 0.00 | 0.00 | 48 | 1013.4 |
| 20260503045511 | 48 | 154 | 1.7 | 4.3 | 0.00 | 0.00 | 0.00 | 48 | 1013.5 |
| 20260503045003 | 48 | 215 | 0.9 | 4.3 | 0.00 | 0.00 | 0.00 | 48 | 1013.4 |
| 20260503044510 | 48 | 18 | 0.9 | 4.3 | 0.00 | 0.00 | 0.00 | 47 | 1013.5 |
| 20260503044003 | 48 | 340 | 0.9 | 5.2 | 0.00 | 0.00 | 0.00 | 47 | 1013.5 |
| 20260503043504 | 48 | 352 | 0.9 | 5.2 | 0.00 | 0.00 | 0.00 | 47 | 1013.5 |
| 20260503043025 | 48 | 24 | 1.7 | 4.3 | 0.00 | 0.00 | 0.00 | 46 | 1013.5 |
| 20260503042504 | 48 | 360 | 0.9 | 3.5 | 0.00 | 0.00 | 0.00 | 46 | 1013.5 |
| 20260503042007 | 48 | 272 | 0.9 | 4.3 | 0.00 | 0.00 | 0.00 | 46 | 1013.6 |
| 20260503041522 | 49 | 128 | 0.9 | 2.6 | 0.00 | 0.00 | 0.00 | 46 | 1013.6 |
| 20260503041007 | 49 | 341 | 0.9 | 3.5 | 0.00 | 0.00 | 0.00 | 46 | 1013.6 |
| 20260503040505 | 49 | 286 | 0.9 | 3.5 | 0.00 | 0.00 | 0.00 | 45 | 1013.6 |
| 20260503040035 | 49 | 252 | 0.9 | 2.6 | 0.00 | 0.00 | 0.00 | 45 | 1013.6 |
| 20260503035507 | 49 | 227 | 0.9 | 4.3 | 0.00 | 0.00 | 0.00 | 45 | 1013.7 |
| 20260503035011 | 49 | 181 | 0.9 | 4.3 | 0.00 | 0.00 | 0.00 | 45 | 1013.8 |
| 20260503034527 | 49 | 240 | 0.9 | 4.3 | 0.00 | 0.00 | 0.00 | 44 | 1013.8 |
| 20260503034007 | 49 | 300 | 0.9 | 3.5 | 0.00 | 0.00 | 0.00 | 44 | 1013.9 |
| 20260503033508 | 50 | 183 | 0.0 | 3.5 | 0.00 | 0.00 | 0.00 | 43 | 1013.9 |
| 20260503033014 | 50 | 171 | 0.9 | 3.5 | 0.00 | 0.00 | 0.00 | 43 | 1013.9 |
| 20260503032503 | 50 | 127 | 0.9 | 3.5 | 0.00 | 0.00 | 0.00 | 43 | 1013.9 |
| 20260503032004 | 50 | 141 | 0.9 | 4.3 | 0.00 | 0.00 | 0.00 | 43 | 1014.0 |
| 20260503031528 | 50 | 146 | 0.9 | 4.3 | 0.00 | 0.00 | 0.00 | 43 | 1014.1 |
| 20260503031008 | 50 | 336 | 1.7 | 3.5 | 0.00 | 0.00 | 0.00 | 43 | 1014.1 |
| 20260503030510 | 50 | 196 | 0.9 | 5.2 | 0.00 | 0.00 | 0.00 | 43 | 1014.2 |
| 20260503030025 | 50 | 212 | 0.9 | 5.2 | 0.00 | 0.00 | 0.00 | 43 | 1014.3 |
| 20260503025506 | 50 | 352 | 0.9 | 3.5 | 0.00 | 0.00 | 0.00 | 43 | 1014.3 |
| 20260503025007 | 50 | 333 | 0.9 | 3.5 | 0.00 | 0.00 | 0.00 | 43 | 1014.3 |
| 20260503024524 | 50 | 40 | 0.9 | 2.6 | 0.00 | 0.00 | 0.00 | 43 | 1014.3 |
| 20260503024007 | 50 | 79 | 0.9 | 2.6 | 0.00 | 0.00 | 0.00 | 44 | 1014.3 |
| 20260503023512 | 50 | 271 | 0.9 | 2.6 | 0.00 | 0.00 | 0.00 | 44 | 1014.3 |
| 20260503023027 | 49 | 192 | 0.9 | 2.6 | 0.00 | 0.00 | 0.00 | 44 | 1014.3 |
| 20260503022503 | 49 | 194 | 0.9 | 1.7 | 0.00 | 0.00 | 0.00 | 45 | 1014.3 |
| 20260503022011 | 49 | 209 | 0.9 | 1.7 | 0.00 | 0.00 | 0.00 | 45 | 1014.3 |
| 20260503021512 | 49 | 205 | 0.0 | 1.7 | 0.00 | 0.00 | 0.00 | 44 | 1014.3 |
| 20260503021007 | 50 | 195 | 0.0 | 2.6 | 0.00 | 0.00 | 0.00 | 44 | 1014.3 |
| 20260503020506 | 50 | 282 | 0.9 | 2.6 | 0.00 | 0.00 | 0.00 | 44 | 1014.3 |
| 20260503020018 | 49 | 234 | 0.0 | 1.7 | 0.00 | 0.00 | 0.00 | 44 | 1014.3 |
| 20260503015507 | 50 | 189 | 0.0 | 1.7 | 0.00 | 0.00 | 0.00 | 44 | 1014.3 |
| 20260503015006 | 50 | 232 | 0.0 | 1.7 | 0.00 | 0.00 | 0.00 | 43 | 1014.2 |
| 20260503014525 | 50 | 189 | 0.0 | 1.7 | 0.00 | 0.00 | 0.00 | 43 | 1014.1 |
| 20260503014003 | 50 | 180 | 0.0 | 1.7 | 0.00 | 0.00 | 0.00 | 43 | 1014.1 |
| 20260503013508 | 50 | 239 | 0.0 | 1.7 | 0.00 | 0.00 | 0.00 | 43 | 1014.1 |
| 20260503013007 | 50 | 187 | 0.0 | 1.7 | 0.00 | 0.00 | 0.00 | 43 | 1014.1 |
| 20260503012511 | 50 | 199 | 0.0 | 1.7 | 0.00 | 0.00 | 0.00 | 43 | 1014.1 |
| 20260503012005 | 50 | 238 | 0.0 | 1.7 | 0.00 | 0.00 | 0.00 | 42 | 1014.0 |
| 20260503011515 | 51 | 211 | 0.0 | 1.7 | 0.00 | 0.00 | 0.00 | 41 | 1014.0 |
| 20260503011005 | 51 | 210 | 0.0 | 1.7 | 0.00 | 0.00 | 0.00 | 41 | 1014.1 |
| 20260503010507 | 51 | 213 | 0.0 | 1.7 | 0.00 | 0.00 | 0.00 | 40 | 1014.0 |
| 20260503010023 | 52 | 281 | 0.0 | 1.7 | 0.00 | 0.00 | 0.00 | 40 | 1014.1 |
| 20260503005507 | 52 | 217 | 0.0 | 1.7 | 0.00 | 0.00 | 0.00 | 40 | 1014.1 |
| 20260503005005 | 52 | 233 | 0.0 | 1.7 | 0.00 | 0.00 | 0.00 | 40 | 1014.1 |
| 20260503004549 | 53 | 261 | 0.0 | 1.7 | 0.00 | 0.00 | 0.00 | 39 | 1014.1 |
| 20260503004006 | 53 | 217 | 0.0 | 1.7 | 0.00 | 0.00 | 0.00 | 39 | 1014.1 |
| 20260503003507 | 53 | 321 | 0.0 | 1.7 | 0.00 | 0.00 | 0.00 | 38 | 1014.1 |
| 20260503003006 | 53 | 276 | 0.0 | 1.7 | 0.00 | 0.00 | 0.00 | 38 | 1014.2 |
| 20260503002504 | 54 | 316 | 0.0 | 1.7 | 0.00 | 0.00 | 0.00 | 38 | 1014.2 |
| 20260503002008 | 54 | 338 | 0.0 | 1.7 | 0.00 | 0.00 | 0.00 | 37 | 1014.2 |
| 20260503001508 | 54 | 42 | 0.9 | 2.6 | 0.00 | 0.00 | 0.00 | 36 | 1014.3 |
| 20260503001004 | 54 | 331 | 0.9 | 2.6 | 0.00 | 0.00 | 0.00 | 36 | 1014.2 |